Weather History for Zacatecas Airport, Mexico

Change the Weather History Date:

Friday, February 15, 2013

  Actual Average Record
Temperature  
Mean Temperature 50 °F -  
Max Temperature 69 °F 70 °F 78 °F (2000)
Min Temperature 30 °F 35 °F 28 °F (1997)
Degree Days  
Heating Degree Days 16    
Moisture  
Dew Point 6 °F    
Average Humidity 18    
Maximum Humidity 32    
Minimum Humidity 11    
Precipitation  
Precipitation 0.00 in - - ()
Sea Level Pressure  
Sea Level Pressure 30.21 in    
Wind  
Wind Speed 7 mph ()    
Max Wind Speed 12 mph    
Max Gust Speed -    
Visibility 10.0 miles    
Events      
Averages and records for this station are not official NWS values.
T = Trace of Precipitation, MM = Missing Value Source: Averaged Metar Reports

Daily Weather History Graph

Daily Weather History Graph

Search for Another Location

Airport:

Trip Planner

Search our weather history database for the weather conditions in past years. The results will help you decide how hot, cold, wet, or windy it might be!

Date:

Astronomy

Feb. 15, 2013 Rise Set
Actual Time 7:22 AM CST 6:47 PM CST
Civil Twilight 6:59 AM CST 7:10 PM CST
Nautical Twilight 6:33 AM CST 7:36 PM CST
Astronomical Twilight 6:07 AM CST 8:03 PM CST
Moon 10:45 AM CST (2/15) No Moon Set
Length of Visible Light 12h 10m
Length of Day
11h 24m
Waxing Crescent, 30% of the Moon is Illuminated
Feb 15
Waxing Crescent
Feb 17
First Quarter
Feb 25
Full
Mar 4
Last Quarter
Mar 11
New

Hourly Weather History & Observations

Time (CST) Temp. Windchill Dew Point Humidity Pressure Visibility Wind Dir Wind Speed Gust Speed Precip Events Conditions
12:40 AM 37.4 °F 29.8 °F 3.2 °F 24% 30.19 in 10.0 mi South 11.5 mph - N/A   Clear
1:45 AM 39.2 °F 34.2 °F 1.4 °F 21% 30.18 in 10.0 mi South 6.9 mph - N/A   Clear
2:40 AM 32.0 °F 27.5 °F -4.0 °F 21% 30.20 in 10.0 mi SSW 4.6 mph - N/A   Clear
3:43 AM 30.2 °F 21.9 °F -0.4 °F 27% 30.18 in 10.0 mi SW 9.2 mph - N/A   Clear
4:40 AM 35.6 °F 27.5 °F 5.0 °F 28% 30.17 in 10.0 mi SSW 11.5 mph - N/A   Clear
5:40 AM 32.0 °F 27.5 °F 1.4 °F 27% 30.18 in 10.0 mi South 4.6 mph - N/A   Clear
6:50 AM 30.2 °F 21.9 °F 1.4 °F 29% 30.21 in 10.0 mi SW 9.2 mph - N/A   Clear
7:47 AM 32.0 °F 24.8 °F 5.0 °F 32% 30.23 in 10.0 mi SSW 8.1 mph - N/A   Partly Cloudy
8:42 AM 46.4 °F 41.5 °F 12.2 °F 25% 30.25 in 10.0 mi South 10.4 mph - N/A   Partly Cloudy
9:56 AM 55.4 °F - 15.8 °F 21% 30.28 in 10.0 mi South 9.2 mph - N/A   Scattered Clouds
11:01 AM 62.6 °F - 12.2 °F 14% 30.28 in 10.0 mi Calm Calm - N/A   Scattered Clouds
11:53 AM 64.4 °F - 10.4 °F 12% 30.26 in 10.0 mi North 5.8 mph - N/A   Mostly Cloudy
1:43 PM 66.2 °F - 12.2 °F 12% 30.19 in 10.0 mi NE 6.9 mph - N/A   Mostly Cloudy
2:42 PM 69.8 °F - 12.2 °F 11% 30.16 in 10.0 mi ENE 6.9 mph - N/A   Overcast
3:59 PM 69.8 °F - 12.2 °F 11% 30.16 in 10.0 mi NNE 8.1 mph - N/A   Mostly Cloudy
4:52 PM 66.2 °F - 12.2 °F 12% 30.17 in 10.0 mi NNE 5.8 mph - N/A   Overcast
5:51 PM 66.2 °F - 12.2 °F 12% 30.18 in 10.0 mi North 4.6 mph - N/A   Mostly Cloudy
6:44 PM 62.6 °F - 8.6 °F 12% 30.19 in 10.0 mi NE 5.8 mph - N/A   Mostly Cloudy
7:46 PM 53.6 °F - 3.2 °F 13% 30.22 in 10.0 mi WSW 11.5 mph - N/A   Mostly Cloudy
8:43 PM 51.8 °F - 1.4 °F 13% 30.24 in 10.0 mi ENE 3.5 mph - N/A   Scattered Clouds
9:43 PM 44.6 °F 42.2 °F -0.4 °F 15% 30.28 in 10.0 mi NW 4.6 mph - N/A   Scattered Clouds
10:41 PM 46.4 °F 43.5 °F -0.4 °F 14% 30.28 in 10.0 mi NE 5.8 mph - N/A   Scattered Clouds